Regional Weather Roundup
Issued by NWS Northern Indiana

Home | Current Version | Previous Version | Graphics & Text | Print | Product List | Glossary On
Versions: 1 2 3 4 5 6 7 8 9 10 11 12 13 14 15 16 17 18 19 20 21 22 23 24 25 26 27 28 29 30 31 32 33 34 35 36 37 38 39 40 41 42 43 44 45 46 47 48 49 50
000
ASUS43 KIWX 061300
RWRIWX

KIWX WEATHER ROUNDUP
NATIONAL WEATHER SERVICE NORTHERN INDIANA
900 AM EDT WED MAY 06 2015

NOTE: "FAIR" INDICATES FEW OR NO CLOUDS BELOW 12,000 FEET WITH NO
SIGNIFICANT WEATHER AND/OR OBSTRUCTIONS TO VISIBILITY.

* THESE STATIONS ARE NOT UNDER NWS QUALITY CONTROL. THEY ALSO MAY NOT
  REPORT WEATHER SUCH AS PRECIPITATION OR FOG.

INZ001>027-061400-
NORTHERN INDIANA

CITY           SKY/WX    TMP DP  RH WIND       PRES   REMARKS
GARY*          CLOUDY    55 N/A N/A CALM      30.19R FOG
SOUTH BEND     CLOUDY    56  54  93 E9        30.22S FOG
ELKHART*       CLOUDY    55  55 100 SE8       30.23R FOG
GOSHEN         CLOUDY    55  53  93 E7        30.22S FOG
ANGOLA*        CLOUDY    54  43  66 SE5       30.23S VSB 3/4
FORT WAYNE     FOG       53  53 100 E8        30.24R VSB 3/4

$$
INZ028>050-061400-
CENTRAL INDIANA

CITY           SKY/WX    TMP DP  RH WIND       PRES   REMARKS
LAFAYETTE      CLOUDY    64  59  83 CALM      30.19R
KOKOMO*        MOSUNNY   57  55  94 E7        30.21S
MUNCIE*        SUNNY     66  58  75 CALM      30.21R
INDIANAPOLIS   MOSUNNY   68  55  63 CALM      30.20R

$$
MIZ043>046-050>051-056>058-064>065-071>073-077>080-061400-
SOUTHWEST LOWER MICHIGAN

CITY           SKY/WX    TMP DP  RH WIND       PRES   REMARKS
BATTLE CREEK   FOG       53  52  96 SE3       30.24R VSB 1
BENTON HARBOR  CLOUDY    55  54  96 SE10      30.20S FOG
COLDWATER*     FOG       53  53  99 SE5       30.23F VSB 3/4
HILLSDALE*     FOG       54  54 100 E7        30.24S VSB<1/4
HOLLAND        CLOUDY    54  53  97 SE8       30.23R FOG
GRAND RAPIDS   CLOUDY    54  52  93 E8        30.23S FOG
KALAMAZOO      CLOUDY    54  52  93 SE3       30.24R FOG
STURGIS*       FOG       54  54 100 E5        30.23S VSB 3/4
THREE RIVERS*  FOG       54  54  99 SE3       30.24R VSB 1

$$
OHZ001>008-015>018-024>025-061400-
NORTHWEST OHIO

CITY           SKY/WX    TMP DP  RH WIND       PRES   REMARKS
DEFIANCE       FOG       54  53  97 E6        30.25R VSB 1/4
FINDLAY        CLOUDY    54  53  97 NE6       30.23R FOG
TOLEDO EXPRESS FOG       52  52 100 E6        30.25R VSB 1/4
TOLEDO METCALF FOG       52  50  93 NE8       30.26R VSB 1/4
LIMA           FOG       55  55 100 E3        30.23R VSB 1/4

$$
AND FOR LAKE MICHIGAN COASTAL AND OPEN LAKE BUOY OBSERVATIONS

STATION/POSITION TEMP    WIND        PRES    VSBY  WAVE
                 AIR SEA DIR/SP/G                  HT/PER
                 (F)     (DEG/KT/KT) (MB)    (MI)  (FT/S)
CALUMET HARBOR    49      40/  2/  3   N/A
MICHIGAN CITY     56      90/  5/  7   N/A
BURNS HARBOR      59     160/  3/  6 1023.0S
SAINT JOSEPH      55      CALM  /  6 1022.4F
4 MI NW BRIDGMAN  54 50  160/  6/  8   N/A           1
MICHIGAN CITY     54 51  150/  6/  6   N/A           1

$$
&&


USA.gov is the U.S. government's official web portal to all federal, state and local government web resources and services.